Tracking 19193 objects as of 23-Jun-2018
HD Live streaming from Space Station
objects crossing your sky now

FENGYUN 1C DEB

Track FENGYUN 1C DEB now!
10-day predictions


NORAD ID: 40999
Int'l Code: 1999-025EXD
Perigee: 857.0 km
Apogee: 943.8 km
Inclination: 99.3 °
Period: 102.8 minutes
Semi major axis: 7271 km
RCS: Unknown
Launch date: May 10, 1999
Source: People's Republic of China (PRC)
Launch site: Taiyaun Space Center, China (TSC)

Note: This is SATELLITE DEBRIS
aabbcc
Your satellite tracking list
Your tracking list is empty




NASA's NSSDC Master Catalog

Two Line Element Set (TLE):
1 40999U 99025EXD 18165.80400652 -.00000094  00000-0 -31912-4 0  9997
2 40999  99.2751 158.0207 0059644 224.0319 135.6086 14.00151000432086
Source of the keplerian elements: AFSPC